OBJECT CD, 66741

Orbit data source: Space-Track

You're viewing an Uncataloged Satellite

Recently launched and/or uncataloged satellites may have evolving metadata. Metadata may include but not limited to: Owner, Maufacturer, Bus, Motor, and Mission.

OBJECT CD, 66741 is a satellite in SSO that was launched on Fri, 28 Nov 2025 UTC via an FALCON 9 launch vehicle from the Air Force Western Test Range (AFWTR). Unknown objects in Earth's orbit typically refer to objects detected orbiting the Earth but have not yet been identified or cataloged. These objects could be anything from previously untracked satellites, spent rocket stages, debris from satellite collisions, or even natural meteoroids temporarily captured by Earth's gravity.

Loading next visibility...
Identifier
66741, 2025-276CD
Orbit
SSO
Country
Flag of TBDTBD
Related business
None
Manufacturer
Unknown
Mission
Operational spacecraft
Bus & Motor
Unknown
Mass
Unknown
Launch date (UTC)
2025-11-28 (2 months ago)
Launch vehicle
FALCON 9
Launch site
Air Force Western Test Range (AFWTR)
Object type
Unknown
Shape & HBR
Unknown
Radar Cross Section
RCS unknown

Expand to show TLE details & history
Last TLE update: 1 day ago

TLE from 1 day ago
0 OBJECT CD
1 66741U 25276CD  26033.62255267  .00003723  00000-0  18657-3 0  9990
2 66741  97.4352 109.4963 0004778  94.6935 265.4844 15.17966392  9988
Epoch: 2026-02-02T14:56Z
TLE epoch observation values (Epoch: 2026-02-02T14:56:28.550Z)
Latitude
-0.00011°
Longitude
112.56216°
Altitude
515.335 km
Speed
7.606 km/s
True Right ascension
07h 17m 59s
True Declination
0° 00' 00"
Sunlit
Object was in full shadow at epoch
Visualization orbit readout
Latitude
Unknown
Longitude
Unknown
Altitude
Unknown
Speed
Unknown
Apparent Right ascension
Unknown
Apparent Declination
Unknown
Sunlit
N/A
Visualization observer readout
Local Sidereal Time
04:16:30
Azimuth
Unknown
Elevation
Unknown
Doppler factor
Unknown
Orbital elements
Apogee altitude
512.248 km
Perigee altitude
505.667 km
Semi-major axis
6,887.094 km
Eccentricity
0.00048
Inclination
97.4352°
RAAN
109.4963°
Arg. of periapsis
94.6935°
True anomaly
265.42982°
Mean anomaly
265.4844°
Eccentric anomaly
265.45711°
Mean motion
3.79742 °/min
Orbital period
94.8 mins
BSTAR
0.00018657
Loading maneuver chart data...
Computing Atmospheric mass density...
Loading historical data...
Loading historical data...
Loading historical data...
Loading historical data...
Loading historical data...
Loading historical data...
Loading historical data...

Documentation

Showing up to 5 results
|